Theta_e
309 311 312 312 311 310 309 309 309 309 308 309 310 311 312 312 312 311 310 309 307 307 308 309 309 309 309 308 308 306 305 303 302 301 300 300 299 299 299 298 298 298 298 298 297 297 296 296 296 296 296 296 295 295 295 295 295 295 295 296 297 298 300 301 301 303 305 306 307 307 309 312 313 316 319 320 322 323 322 319 319 322 325 324 323 323
309 310 312 312 310 307 307 307 306 307 307 309 310 311 312 312 312 310 309 309 307 306 307 308 308 308 308 307 307 306 304 302 301 300 299 299 299 299 299 298 298 298 298 297 297 297 296 295 295 296 296 296 296 296 295 295 295 295 295 295 296 297 298 300 301 302 304 305 306 307 308 310 312 313 315 318 320 321 323 322 320 320 323 324 323 323
310 310 310 309 307 305 305 305 305 307 309 310 311 311 312 312 311 310 309 308 306 306 306 307 307 308 307 307 306 305 303 301 300 300 299 299 298 298 298 298 298 298 297 297 297 296 296 295 295 295 295 296 296 296 296 295 295 295 295 295 295 295 296 297 299 300 302 303 305 307 307 307 310 312 313 314 317 318 320 321 322 322 322 322 322 322
308 308 307 306 305 305 306 306 306 308 310 311 311 311 311 311 310 310 309 307 306 306 306 307 307 306 307 307 305 304 303 302 301 300 299 299 298 298 298 298 298 297 297 297 296 296 296 296 295 295 295 296 295 296 296 295 295 295 295 295 295 295 295 296 297 298 299 301 304 306 306 305 306 309 310 312 315 317 319 318 319 320 320 320 321 321
307 307 305 305 306 307 308 309 309 309 310 312 310 310 310 309 308 308 307 306 306 306 306 305 305 305 306 307 305 304 303 302 301 300 299 298 298 298 298 298 297 297 297 296 296 296 296 296 295 295 295 295 295 296 296 295 295 295 295 295 295 295 295 294 295 297 298 299 301 303 305 304 304 306 308 311 312 315 319 321 320 319 319 320 320 321
308 306 304 307 308 309 310 309 310 310 309 311 309 307 308 307 307 306 306 306 306 306 306 304 303 304 305 307 306 304 302 301 300 299 299 298 298 298 297 297 297 297 297 296 296 296 296 296 295 295 294 294 295 295 295 295 295 295 295 294 295 295 295 294 294 296 297 297 298 300 302 304 305 306 308 311 312 312 315 319 321 320 320 320 320 321
307 304 305 309 309 310 310 309 309 309 309 310 308 305 306 306 306 306 306 305 305 306 307 305 302 303 305 307 306 303 300 299 299 299 298 298 297 297 297 297 297 296 296 296 296 295 295 295 295 295 294 294 294 294 294 294 294 295 295 295 295 294 295 295 294 295 296 296 296 297 299 302 305 307 306 307 310 312 312 315 318 319 319 319 320 321
306 306 307 309 308 308 309 309 308 307 308 309 307 305 306 306 305 305 306 305 305 305 306 305 304 303 305 307 305 302 300 299 298 297 298 298 297 297 297 296 296 296 295 295 295 294 294 294 295 295 294 294 294 293 293 293 293 294 294 294 295 295 294 294 294 294 295 295 295 296 297 299 303 306 306 306 309 311 312 313 316 318 318 317 319 321
306 307 308 307 307 307 308 308 306 306 309 308 305 304 305 304 304 306 305 304 305 304 303 305 305 305 306 307 304 302 300 298 297 296 297 297 297 296 296 296 295 295 294 294 294 294 294 294 294 294 294 294 294 293 293 292 293 293 293 293 293 294 294 294 294 294 295 295 295 295 295 297 299 303 306 307 309 311 311 312 314 317 318 318 318 319
306 305 305 305 307 307 307 304 304 305 306 304 303 303 305 305 305 306 305 304 304 303 303 304 305 304 304 304 302 301 299 297 296 296 297 297 297 296 296 295 295 294 294 294 294 294 294 294 294 293 294 294 294 294 293 292 292 292 293 293 293 293 294 294 294 294 294 295 295 295 295 295 296 300 304 307 309 310 312 312 312 315 318 318 319 320
304 303 304 305 306 306 304 302 302 303 302 301 303 304 304 304 303 303 303 303 302 303 304 303 302 300 299 301 301 300 298 296 296 296 296 297 296 296 295 294 294 294 294 294 293 293 293 293 293 293 293 293 293 293 293 293 292 292 292 292 292 293 293 293 294 294 294 294 295 295 295 295 295 296 300 304 307 309 311 311 311 312 316 318 318 319
305 305 305 305 304 304 305 304 303 303 302 302 303 303 302 302 302 301 301 301 301 303 304 301 299 297 297 300 299 297 296 296 296 296 296 296 296 295 294 294 294 294 294 293 293 293 293 293 293 293 293 293 293 293 293 293 293 293 293 292 293 293 292 293 293 294 294 294 295 295 295 295 295 295 296 299 303 307 308 310 311 311 313 318 319 318
307 306 304 304 303 303 306 307 306 304 303 303 303 302 301 301 300 300 301 300 301 303 302 299 298 297 297 299 299 297 296 296 296 296 296 296 295 294 294 294 294 293 293 293 293 293 292 293 293 292 293 293 293 293 293 293 293 293 293 293 293 293 293 293 293 293 294 294 294 295 295 295 295 295 295 296 299 303 306 307 309 310 311 315 319 318
308 306 303 305 305 302 304 307 306 304 301 302 302 301 299 298 298 299 300 299 300 301 299 297 297 297 298 301 300 297 296 296 296 296 296 295 295 294 294 294 293 293 293 292 292 292 292 292 292 292 292 292 293 293 293 293 293 294 293 293 293 293 293 293 293 293 294 294 294 294 295 295 295 295 295 295 296 299 303 305 307 310 310 312 316 319
308 308 304 305 305 302 302 303 303 302 300 301 302 300 299 298 298 298 299 298 298 299 299 298 298 298 299 301 299 297 296 296 296 296 295 295 294 294 294 293 293 293 292 292 292 292 292 292 292 292 292 292 292 292 292 293 292 293 293 293 293 293 293 293 293 293 293 294 294 294 295 295 295 295 295 295 295 296 300 303 306 308 310 310 312 317
306 307 304 302 301 299 299 300 300 300 300 299 299 300 300 300 299 299 298 298 297 297 298 298 299 299 299 299 298 296 296 296 296 296 295 294 294 293 293 293 293 292 292 292 292 292 292 292 292 292 292 292 292 292 292 292 292 292 292 292 293 293 293 293 293 293 293 294 293 294 294 295 295 295 295 295 294 295 297 301 303 305 308 310 310 313
305 306 303 300 299 297 296 298 299 299 300 299 298 299 299 298 298 297 298 298 296 296 298 298 298 299 298 298 296 295 296 296 295 295 294 294 293 293 293 293 292 292 292 292 292 292 292 292 292 292 292 292 292 292 291 291 291 291 291 292 292 293 293 293 293 293 293 293 293 293 294 295 295 295 295 295 295 294 295 298 301 303 306 309 310 311
304 305 304 302 301 297 295 297 297 296 298 298 297 298 298 296 296 295 295 296 296 296 297 297 297 297 297 297 296 295 295 295 294 294 294 293 293 293 293 292 292 292 292 291 292 292 292 292 292 292 292 292 291 291 291 291 291 291 291 292 292 292 292 292 292 293 293 293 293 293 293 294 295 295 295 295 295 294 294 296 299 301 304 307 309 310
302 303 304 301 300 298 296 298 298 296 295 297 297 297 296 295 295 295 294 294 295 295 296 297 297 296 296 297 296 295 294 294 294 293 293 293 293 293 292 292 292 291 291 292 292 292 292 292 292 292 291 291 291 290 290 290 290 291 291 291 291 292 292 292 292 292 293 293 293 293 293 294 295 295 295 295 295 294 294 295 297 300 302 305 308 309
301 301 302 300 298 297 297 298 298 297 295 295 296 296 296 295 294 294 294 294 294 294 295 295 295 296 296 295 294 294 294 294 293 292 292 293 293 292 292 292 291 291 291 291 292 292 292 292 291 291 290 290 290 290 290 289 289 289 288 288 289 290 291 292 292 292 292 292 293 293 293 293 294 295 295 295 295 294 294 294 295 298 301 303 306 308
300 300 301 300 297 297 298 298 298 297 296 295 296 295 295 295 294 294 293 293 293 293 294 294 294 296 296 295 294 294 294 293 293 292 292 293 292 292 292 291 291 291 291 291 291 291 291 291 291 290 290 289 289 289 288 286 285 285 285 285 287 289 290 291 292 293 293 293 292 293 293 293 294 295 295 295 295 294 294 294 294 296 299 302 305 306
299 300 301 300 298 298 298 296 296 296 296 296 296 296 295 294 293 293 293 293 292 293 293 292 293 294 295 294 294 294 294 293 293 293 292 292 292 292 291 291 291 291 291 291 291 291 291 290 290 290 289 288 287 286 284 283 282 282 283 284 285 287 288 290 292 292 293 293 293 293 293 293 294 295 295 295 295 295 294 294 294 295 298 301 304 305
297 298 299 299 298 297 295 293 294 295 296 295 295 295 295 294 293 293 293 293 292 292 292 292 292 294 294 294 294 294 294 293 293 293 292 292 292 291 291 291 291 291 291 291 291 291 290 290 289 288 287 286 284 283 282 281 281 281 282 282 284 285 286 287 289 290 292 293 294 294 294 293 293 294 295 295 295 295 294 294 294 294 297 300 302 305
296 296 296 298 297 293 291 292 293 294 294 294 294 294 294 294 294 293 292 292 292 292 292 292 293 294 294 294 294 294 294 293 293 292 292 292 291 291 291 291 291 291 291 290 290 290 289 289 288 287 285 284 282 282 281 281 280 280 280 281 281 283 284 284 286 287 289 292 293 294 295 294 294 294 295 295 295 295 294 294 294 294 296 298 301 303
297 297 296 296 296 294 292 294 293 293 293 294 294 294 294 293 293 293 293 293 293 293 293 292 293 294 294 295 294 294 293 293 293 292 292 291 291 291 291 291 291 291 290 290 289 289 289 288 287 285 283 282 282 281 281 280 280 279 279 279 279 280 281 282 284 285 287 289 291 293 294 295 294 294 295 295 295 295 294 294 294 293 295 298 300 302
296 296 296 296 296 296 295 296 295 294 293 293 293 293 293 293 293 292 292 292 293 293 292 292 293 293 294 294 293 293 292 292 292 292 291 291 291 291 291 291 291 290 290 289 289 289 288 287 285 284 282 281 281 280 280 279 279 279 278 279 279 279 279 279 281 284 285 286 287 289 291 293 294 294 295 295 294 294 294 294 294 293 294 296 299 300
296 295 295 295 296 296 296 295 294 293 292 293 293 293 293 293 293 293 292 292 292 292 292 293 292 292 293 293 292 292 292 291 291 291 291 291 291 291 291 290 290 289 289 289 288 287 286 284 283 283 282 280 280 279 279 278 278 278 277 277 278 278 278 278 279 281 283 284 284 285 287 289 292 293 294 295 294 294 294 294 293 293 293 295 297 299
295 294 294 295 295 295 295 294 293 292 292 292 293 293 293 293 293 293 292 292 292 292 292 292 292 292 292 292 292 292 291 291 291 291 291 291 291 291 290 289 289 289 288 288 287 285 284 283 282 282 280 279 279 278 278 277 277 277 277 276 276 277 277 276 277 278 279 281 282 283 284 286 288 291 293 294 294 294 294 293 293 293 293 294 296 298
294 294 294 294 295 294 294 293 293 293 292 292 292 293 293 293 293 293 292 292 292 291 292 292 292 292 292 292 292 291 291 291 291 291 291 291 291 290 289 289 288 288 287 286 285 284 282 282 281 280 279 278 277 277 276 276 276 276 275 275 275 275 275 276 276 277 277 278 279 280 282 284 286 289 291 292 293 294 294 293 292 292 292 293 295 297
293 293 293 293 293 293 293 293 293 293 292 293 292 292 293 293 293 293 292 292 292 292 292 291 291 291 291 292 292 291 291 291 291 291 291 291 291 289 288 288 288 287 286 284 283 282 281 280 279 279 278 277 276 275 275 275 274 274 274 274 274 275 275 276 276 276 277 277 277 278 279 281 283 286 289 289 290 292 293 292 292 291 292 292 294 296
293 294 293 293 294 294 293 293 293 293 293 293 292 292 292 292 292 292 292 292 292 291 291 291 291 291 292 292 292 291 291 291 291 291 291 290 289 288 288 288 286 285 284 283 282 280 280 279 278 277 277 276 275 275 274 274 273 273 273 273 274 274 275 275 276 276 277 277 277 277 278 279 281 284 286 286 287 290 291 291 291 290 291 292 293 295
293 293 293 293 294 294 293 292 292 292 292 292 291 292 292 292 292 292 292 291 291 291 291 291 291 291 291 292 292 291 291 291 291 291 290 289 288 288 288 286 285 284 283 281 281 280 279 278 277 276 276 275 274 274 273 273 273 273 273 273 273 273 274 275 275 276 276 277 277 278 277 278 279 281 284 284 284 287 289 290 290 290 290 291 292 294
294 293 292 292 293 293 292 291 291 291 291 291 292 292 292 292 292 292 291 291 291 291 290 290 291 291 291 291 291 290 291 291 291 290 289 288 288 288 287 285 283 282 281 280 280 279 278 277 276 275 274 274 274 273 272 272 272 272 272 272 273 273 274 274 275 276 276 277 277 278 278 278 278 279 282 283 283 285 287 289 289 289 290 291 292 293
294 293 292 293 293 292 291 290 290 291 292 293 293 293 292 291 291 291 291 291 291 291 291 291 291 291 291 291 290 290 291 291 290 289 288 288 288 287 285 283 282 281 280 279 278 278 277 276 275 274 274 273 273 272 272 272 272 272 271 271 272 273 273 274 275 275 276 277 277 277 278 278 278 278 280 281 282 284 286 288 289 290 290 291 291 293
294 293 292 293 293 291 290 290 292 293 293 292 292 292 291 291 291 291 290 291 291 291 291 291 291 291 291 291 291 291 291 290 289 288 288 288 287 286 283 282 281 280 279 278 277 276 276 274 273 273 273 272 272 271 271 271 271 271 271 271 271 272 272 273 274 275 276 277 277 277 278 278 278 278 278 280 281 283 285 287 289 290 290 290 290 293
294 292 293 293 292 291 291 292 293 293 292 291 291 291 291 291 290 290 290 291 291 290 291 290 290 291 291 291 291 291 290 288 287 288 288 288 286 284 282 281 280 279 278 278 276 275 275 274 273 272 272 272 271 271 271 271 270 270 270 270 270 271 271 272 273 275 276 277 277 278 278 278 278 278 279 279 282 284 286 287 289 289 290 290 291 293
293 293 292 292 292 292 291 292 293 292 292 292 291 291 291 291 291 291 290 291 291 291 291 290 290 291 291 291 291 289 288 287 288 289 289 287 285 284 282 280 279 278 278 278 276 275 274 273 272 272 271 271 271 270 270 270 270 270 269 270 270 270 271 272 272 273 275 276 277 278 278 279 279 279 279 280 282 285 287 288 288 289 290 291 292 294
292 292 292 292 293 292 291 291 292 292 292 292 291 291 291 291 291 290 290 291 291 291 291 290 290 291 291 291 290 288 287 287 288 289 288 286 285 284 282 281 280 279 279 279 276 275 274 273 272 271 271 270 270 270 270 269 269 269 269 269 270 270 271 271 272 273 274 275 277 278 278 279 279 279 279 280 282 285 288 289 289 290 291 292 293 294
292 292 292 292 292 292 291 292 292 292 292 292 291 291 291 290 290 290 290 290 291 290 291 291 290 291 291 290 288 286 286 287 288 288 287 284 284 283 281 280 279 279 280 279 276 274 274 273 271 271 270 270 270 269 269 268 268 268 268 269 269 270 270 271 271 272 272 273 275 277 278 279 279 279 280 281 283 285 288 290 291 292 293 293 293 294
291 292 292 291 291 291 291 291 291 291 292 292 291 290 290 290 290 290 290 291 291 290 291 291 290 290 289 288 286 286 286 287 287 286 284 282 282 282 280 278 277 276 277 278 276 275 274 273 271 270 270 269 269 269 268 268 268 268 268 268 269 269 270 270 270 271 272 273 274 275 277 278 279 280 280 281 283 285 288 290 292 293 292 292 293 294
291 291 292 291 291 292 292 291 291 291 291 292 292 291 290 289 290 290 290 291 291 291 291 290 289 289 288 286 285 285 286 285 284 283 282 281 280 280 279 278 277 275 275 275 275 273 273 272 271 269 270 269 269 269 268 267 267 267 268 268 268 269 269 269 270 271 272 273 274 276 277 278 279 281 281 283 284 285 287 290 291 292 291 291 293 294
291 290 291 291 292 291 292 292 291 291 291 292 291 291 290 289 290 291 291 291 291 291 290 289 289 288 286 285 284 284 284 284 283 281 280 280 279 278 278 278 278 276 276 276 275 273 272 272 270 270 271 270 268 267 267 267 267 267 267 267 267 268 269 269 270 271 271 272 275 277 278 279 281 282 283 284 285 286 287 290 291 291 291 291 293 294
292 291 290 291 292 291 291 291 289 291 292 292 290 290 290 290 290 291 291 291 291 290 289 289 288 288 286 284 284 283 283 283 282 281 279 279 278 277 276 276 276 275 275 275 275 274 272 271 271 271 271 269 267 267 267 266 266 267 266 267 268 268 268 269 269 270 271 272 275 278 280 281 284 284 284 285 286 286 288 290 290 290 290 292 294 295
292 292 292 292 291 291 290 290 290 292 292 291 290 291 291 291 291 291 291 291 291 290 289 288 288 287 286 284 283 283 283 283 282 280 279 279 278 277 276 276 275 275 274 274 274 273 272 272 272 271 270 270 268 267 267 266 266 266 266 267 268 268 268 269 270 270 272 273 277 280 281 283 286 285 284 286 287 287 288 289 290 290 290 292 294 295
293 293 293 292 291 291 291 291 291 292 291 291 291 291 291 291 291 291 291 291 290 289 289 288 287 286 285 284 282 283 283 282 281 280 278 278 277 276 276 275 275 275 274 274 275 274 272 272 271 269 270 273 270 266 268 268 266 265 265 266 267 268 270 272 272 272 273 275 278 281 283 285 287 287 286 287 289 289 289 289 290 290 291 293 294 295
293 292 292 291 292 292 292 292 292 292 291 290 291 291 290 291 291 291 290 290 290 289 288 288 287 286 285 283 283 283 283 281 280 279 278 277 277 276 275 275 275 274 274 274 274 274 271 271 272 270 270 273 272 270 271 270 266 265 266 267 269 270 272 273 274 274 275 278 280 283 285 286 288 289 289 289 291 291 291 291 291 291 292 293 294 295
292 292 291 291 292 292 292 293 293 292 291 291 291 291 291 291 291 290 290 290 289 289 288 288 287 286 284 283 282 282 282 281 279 278 277 276 276 275 274 274 274 273 274 274 273 273 271 271 273 272 269 271 274 274 273 272 269 268 268 268 269 271 273 274 275 275 278 280 282 285 287 287 288 290 291 292 293 293 293 293 293 293 294 294 294 295
293 292 291 291 292 292 292 293 293 292 292 292 291 291 291 291 290 290 290 289 289 288 288 288 287 286 284 283 282 281 281 280 278 278 277 276 275 275 274 273 273 273 273 273 273 273 271 270 272 272 269 271 274 275 273 274 274 271 269 269 271 273 275 277 277 277 279 282 284 287 289 289 289 290 292 293 294 294 294 295 295 295 295 295 296 296
292 292 292 292 292 292 292 293 293 292 291 292 291 291 291 291 291 290 289 289 288 288 288 287 287 286 285 283 281 280 280 279 277 276 276 275 275 274 273 273 272 272 273 273 272 272 271 270 271 273 272 272 274 274 274 276 277 274 272 273 274 275 276 278 278 278 279 282 284 286 289 291 292 292 293 294 295 295 295 295 295 295 296 296 296 296
291 291 292 292 291 292 292 293 292 292 291 292 291 291 291 290 290 289 289 288 288 287 287 286 286 285 284 283 281 279 279 278 277 276 275 275 274 273 273 272 272 272 272 272 272 272 272 271 271 273 274 272 272 273 274 275 276 276 275 275 276 276 277 278 279 279 281 283 284 285 287 290 292 293 293 294 295 296 296 296 296 296 296 297 297 297
292 292 292 292 292 292 292 293 292 292 292 292 291 291 290 290 289 289 288 288 287 287 287 286 285 285 284 282 281 279 277 277 276 275 275 275 274 273 273 272 272 272 272 272 271 271 271 271 272 273 275 273 272 272 273 274 275 277 277 277 278 278 277 278 279 281 282 283 284 285 286 288 290 292 293 293 294 295 295 296 297 298 297 297 297 297
Wind_Speed
7 4 1 2 4 7 6 3 4 5 4 6 7 6 8 10 7 8 11 6 12 14 9 10 13 9 10 15 10 20 19 18 16 14 14 14 13 13 13 14 16 17 20 21 23 30 35 39 40 38 39 42 42 41 40 40 41 41 42 44 44 42 37 32 31 32 32 32 31 30 27 24 25 29 35 40 41 39 41 44 45 47 49 51 51 51
4 3 0 1 2 4 4 2 3 4 4 5 6 7 8 8 9 11 9 4 11 11 10 16 17 8 10 13 11 18 15 15 14 14 14 13 12 12 13 13 14 15 17 19 23 27 32 40 42 40 39 40 42 41 40 39 39 38 39 42 45 46 42 36 32 32 32 31 31 31 29 27 26 26 30 36 41 41 40 43 44 44 48 51 51 53
4 2 2 2 2 1 0 1 2 4 5 5 5 6 7 6 10 9 2 4 11 8 11 17 14 9 9 6 14 15 14 14 12 13 12 13 15 15 15 14 15 18 20 22 26 27 31 38 41 42 41 39 41 40 37 37 39 39 39 39 41 45 47 42 36 34 34 32 31 30 29 29 29 28 29 32 37 43 45 44 45 45 47 48 47 48
5 2 3 2 2 2 1 1 2 4 4 3 4 5 6 7 9 5 1 9 12 7 8 14 12 8 2 8 13 12 13 12 8 10 11 13 15 15 14 14 17 20 23 25 28 29 31 34 37 42 41 37 38 37 36 38 39 40 41 40 40 42 46 46 41 38 37 35 31 29 27 28 31 31 30 30 32 38 45 46 45 46 46 47 47 46
6 3 3 3 3 1 3 2 1 4 4 1 2 3 5 7 7 7 10 16 13 4 3 11 12 3 5 6 7 9 10 9 7 10 15 15 14 14 13 15 17 18 22 25 28 30 30 33 39 45 44 41 38 35 38 42 40 39 41 42 42 42 44 47 46 41 40 39 35 32 29 27 30 32 31 30 32 35 40 46 46 45 45 46 49 49
4 3 2 1 2 2 3 4 1 2 6 2 2 2 5 7 8 11 14 15 12 5 6 11 11 3 3 3 7 7 6 7 9 12 16 16 14 15 16 17 19 20 22 24 27 30 31 33 39 44 46 47 45 42 44 46 44 41 41 41 43 43 44 47 48 44 42 42 39 37 35 31 29 31 32 31 32 36 37 42 46 46 45 47 49 51
1 2 1 1 1 2 3 4 1 1 5 4 1 2 4 6 9 13 13 10 9 9 5 8 6 8 5 2 9 8 6 6 8 10 13 15 15 16 18 20 23 25 27 30 34 37 38 37 38 40 42 44 46 48 50 49 49 47 45 44 43 43 44 46 49 45 41 41 40 39 38 35 30 30 33 34 34 36 38 40 44 46 45 48 50 52
2 1 1 2 2 2 4 4 1 1 4 2 1 2 5 7 10 12 11 7 7 10 6 2 5 9 7 1 9 8 5 5 8 11 13 16 18 19 21 23 28 31 33 36 39 41 41 40 39 40 41 43 45 49 52 51 51 50 49 49 47 44 43 45 49 47 41 39 38 38 39 37 32 29 30 34 35 35 37 39 41 44 46 48 49 50
2 1 1 2 2 2 3 2 1 2 2 1 2 3 5 6 10 10 9 9 7 6 6 4 5 6 6 2 5 6 4 6 10 12 13 16 19 21 23 28 33 34 35 37 39 41 41 41 41 41 42 43 44 49 53 54 53 52 51 52 51 49 45 44 47 48 44 40 38 37 37 38 36 32 28 30 34 34 35 37 38 42 45 47 48 49
1 1 0 0 2 2 1 2 2 2 1 2 2 4 5 6 8 7 6 8 6 5 8 5 2 4 6 4 2 2 4 6 9 10 11 14 18 21 27 32 34 35 35 36 38 39 40 42 43 43 43 44 44 47 52 55 55 54 53 54 53 52 49 45 44 47 47 43 41 39 38 39 39 36 30 28 31 33 33 34 36 39 44 46 47 48
1 1 2 1 2 0 4 3 2 3 1 4 3 3 5 6 6 6 5 4 4 4 5 2 3 2 6 3 1 1 4 5 8 9 11 15 20 26 31 33 34 34 34 35 37 38 40 42 43 43 43 45 46 46 49 52 53 54 54 55 53 53 53 50 45 45 47 45 43 41 39 39 39 39 36 31 30 32 33 33 34 36 42 47 47 48
1 2 2 1 2 1 3 2 2 1 3 3 2 5 7 5 4 5 4 1 2 3 3 6 3 3 7 3 3 5 4 5 7 10 12 16 23 29 32 34 34 33 33 36 36 37 40 43 44 45 45 46 46 47 48 49 50 51 52 54 54 52 53 52 48 45 46 46 44 42 40 39 39 39 38 37 34 33 33 33 32 32 36 44 49 48
1 3 1 2 1 1 2 3 3 3 1 2 4 5 5 5 4 4 4 2 6 4 6 5 4 5 10 8 3 7 5 6 8 11 14 17 23 28 31 32 31 31 34 36 36 38 41 44 46 47 47 48 48 47 48 48 50 51 51 51 51 51 51 51 49 46 45 47 46 43 40 39 39 39 38 39 37 36 35 35 33 31 31 37 49 51
1 2 0 2 1 1 2 2 2 1 3 4 3 2 2 4 6 6 6 5 6 4 4 2 3 5 10 6 6 6 5 7 11 14 14 16 21 26 28 30 29 31 35 36 36 39 42 46 48 48 49 49 49 49 49 49 51 51 51 50 48 49 50 49 50 49 45 46 47 44 42 39 39 38 38 39 39 37 37 37 37 34 30 31 41 52
3 2 2 2 1 1 1 2 2 1 3 4 3 1 2 1 4 6 5 5 7 9 6 4 3 4 5 1 9 6 2 8 15 16 13 16 22 27 29 29 29 32 34 36 38 40 43 47 49 50 51 51 52 52 51 50 50 50 51 51 50 49 48 47 49 51 46 45 46 45 42 40 38 37 37 38 39 38 37 38 39 38 34 30 33 45
4 4 2 2 1 2 2 1 1 1 2 3 2 2 3 1 4 6 3 2 5 11 9 4 4 4 1 6 9 3 6 13 18 16 16 21 27 29 29 29 30 33 36 39 42 44 45 45 48 52 55 54 54 54 54 53 51 51 52 51 50 49 48 47 49 51 48 44 46 47 45 41 38 36 37 37 38 39 37 38 40 40 39 34 32 37
3 2 3 2 2 5 2 1 2 2 0 2 2 2 0 2 2 5 3 0 2 8 7 4 6 7 2 6 7 2 10 15 15 16 21 27 30 31 32 32 34 36 40 44 46 47 48 49 52 57 58 55 54 56 56 54 52 50 49 48 49 48 48 48 48 50 49 46 46 48 46 43 39 36 36 37 39 39 37 37 39 40 40 38 34 34
2 2 3 3 3 5 3 6 7 5 3 1 2 1 2 3 2 1 2 2 4 8 6 6 10 10 6 2 2 5 13 15 15 18 24 30 33 34 35 36 37 40 45 48 48 48 52 55 57 59 59 56 54 55 55 53 51 48 46 45 47 48 48 49 49 48 48 47 48 48 47 45 41 37 36 36 38 40 39 36 38 39 39 40 37 33
1 3 3 2 3 5 3 4 5 4 5 2 2 2 1 3 3 3 1 3 6 8 7 8 11 9 7 3 2 8 14 15 17 20 23 28 32 35 37 38 40 43 46 48 48 52 57 59 60 61 59 57 58 58 53 47 43 40 41 43 45 47 48 49 49 48 48 47 47 48 48 46 42 38 37 36 36 39 40 37 36 37 37 39 38 33
1 2 1 2 3 3 2 3 3 3 3 2 0 1 1 2 2 2 1 1 5 7 7 8 10 6 2 1 4 11 13 13 18 21 21 26 32 35 37 39 41 44 46 47 48 53 58 59 61 62 58 55 55 53 46 44 47 49 52 54 52 48 47 48 48 48 48 47 46 47 48 46 44 40 37 36 36 38 40 39 37 35 35 37 39 34
2 2 2 3 2 2 3 2 3 4 4 3 4 4 3 1 2 2 1 2 3 6 6 7 10 6 2 3 6 11 11 12 18 20 21 27 34 36 37 41 44 45 46 47 48 54 61 60 58 59 56 50 48 50 53 57 61 60 58 56 54 50 44 43 44 46 46 48 48 47 47 45 43 41 39 37 36 38 40 41 38 35 33 36 38 35
2 2 2 4 4 5 2 2 2 3 4 5 6 5 4 4 3 3 4 3 2 4 4 5 11 10 2 1 5 6 7 13 20 23 23 29 35 37 39 43 46 47 47 49 52 57 64 62 55 53 53 49 48 54 59 58 53 48 45 44 45 47 45 40 39 40 43 46 48 48 48 46 42 41 40 38 37 38 40 42 40 36 33 34 37 37
2 1 3 4 4 2 2 4 3 4 5 4 4 4 4 4 4 3 5 2 1 4 4 5 11 9 1 2 2 4 11 19 24 26 27 31 35 38 42 44 46 47 49 54 59 59 59 58 52 50 51 50 50 50 50 49 45 43 42 40 39 40 41 41 39 37 38 40 44 45 46 46 43 41 41 39 38 39 39 42 42 38 34 32 34 37
3 2 3 4 2 3 3 3 3 1 4 5 3 5 5 4 4 3 5 3 3 5 5 6 10 7 3 5 2 11 19 23 25 28 29 31 35 39 43 45 46 48 53 59 63 61 57 55 51 49 48 49 50 49 48 48 47 45 43 41 40 39 39 41 41 38 36 36 38 39 40 41 41 41 42 41 39 39 39 40 42 39 36 32 32 35
4 2 3 2 3 2 2 2 3 1 3 4 4 7 7 5 4 2 4 3 4 8 9 7 9 8 3 1 10 16 19 22 25 29 30 31 36 41 43 45 46 49 56 59 59 58 59 59 52 47 47 49 50 50 49 48 47 47 44 41 42 44 44 43 42 40 39 37 35 35 35 37 38 39 42 44 41 39 38 39 41 39 36 33 30 32
4 2 3 3 6 6 5 2 3 4 5 5 5 8 9 8 8 5 4 5 6 7 9 9 9 11 10 12 17 17 17 21 25 29 32 34 39 42 42 45 48 50 54 55 53 54 58 60 54 50 52 53 52 50 47 46 46 47 45 42 41 42 45 47 45 42 42 42 39 37 35 35 36 37 39 42 43 41 38 37 40 39 37 34 31 30
1 2 5 8 10 9 8 4 4 5 5 6 7 9 10 10 11 8 4 6 7 5 8 12 13 15 18 18 17 18 19 20 22 28 34 36 39 42 42 45 48 49 49 49 50 54 56 56 54 54 56 54 50 49 47 46 46 45 45 45 42 40 42 47 49 45 42 43 43 42 38 34 34 36 36 39 42 42 38 35 38 40 37 35 32 30
1 3 7 11 13 11 9 6 2 3 7 9 9 10 10 10 11 10 8 9 7 5 10 13 11 13 17 17 18 20 19 18 20 29 36 37 38 40 43 46 47 46 47 50 53 56 55 54 56 58 58 55 51 49 47 45 46 45 43 43 42 42 43 44 46 46 44 43 42 42 40 35 33 35 36 38 40 39 36 33 36 39 37 35 33 31
1 4 5 7 11 10 7 8 6 6 8 9 10 13 13 10 11 12 13 14 11 9 13 13 13 16 17 17 19 20 18 19 24 32 37 36 36 38 42 44 43 44 48 52 55 56 54 54 56 57 57 55 51 49 47 46 45 44 43 42 41 42 43 42 42 42 43 44 43 42 42 39 35 34 33 34 34 33 33 32 35 38 37 36 34 31
1 2 3 4 7 7 8 10 11 10 10 10 12 16 15 12 13 14 13 15 16 17 19 18 20 21 17 15 17 19 21 24 27 33 36 33 33 38 41 41 41 45 49 52 54 55 55 54 55 55 55 54 51 49 49 48 47 45 43 43 42 41 40 40 41 41 40 41 41 41 42 41 40 40 39 35 32 30 30 31 34 38 37 36 35 32
3 1 2 2 5 6 8 11 11 10 10 10 13 18 17 14 15 15 12 12 14 16 18 17 18 17 12 13 16 21 25 25 25 29 31 29 31 37 38 38 43 46 47 50 52 53 55 56 57 56 55 53 51 50 49 48 48 46 44 43 42 41 40 39 40 41 41 40 39 38 39 40 41 42 45 43 39 35 33 34 36 38 38 37 36 32
4 2 2 2 4 4 6 8 8 7 7 10 15 20 19 13 12 11 9 9 10 12 14 13 13 11 9 12 17 23 26 24 23 25 27 29 33 35 35 37 42 43 43 47 50 52 54 57 58 57 56 54 52 52 50 49 48 46 45 45 43 42 42 40 40 41 39 39 39 36 36 38 40 41 44 47 47 44 42 42 41 41 41 39 37 34
4 3 2 2 3 2 4 3 3 3 5 8 11 14 14 11 11 10 8 10 12 12 10 9 9 10 12 14 17 20 22 22 22 23 27 31 32 30 32 37 40 41 41 42 46 50 53 54 55 55 54 54 54 52 50 47 46 45 45 46 44 43 43 40 40 41 40 40 38 36 35 37 39 42 43 45 49 48 45 46 46 45 44 42 39 35
4 4 2 2 2 1 2 1 2 6 8 4 2 5 6 7 10 11 10 11 12 11 10 10 11 13 12 13 15 17 21 22 21 26 34 33 26 25 30 36 39 41 42 41 42 48 52 53 54 55 54 54 52 50 48 44 43 44 45 46 44 43 45 44 44 45 44 43 42 39 39 37 38 42 42 41 44 47 46 46 47 46 45 43 41 37
5 4 2 2 2 2 0 0 5 8 4 1 1 3 3 5 9 11 11 13 13 13 13 14 14 13 12 14 17 19 24 25 25 35 38 25 17 23 27 31 37 42 46 47 45 48 53 52 53 55 55 54 50 47 46 44 42 43 46 46 45 45 47 46 46 45 45 46 46 44 43 40 38 39 39 37 37 41 45 47 46 46 45 43 41 37
6 5 3 2 2 1 1 4 6 4 5 5 7 5 3 4 7 8 10 11 11 12 12 12 12 12 13 17 18 18 24 27 28 33 26 12 19 33 30 27 33 38 46 50 47 47 51 50 51 51 50 50 48 45 45 44 43 45 48 49 47 48 47 45 44 44 44 45 46 44 43 40 37 37 37 34 32 34 41 45 46 45 44 41 40 36
7 5 2 2 2 2 3 5 4 5 8 8 7 2 3 3 4 4 7 8 7 9 9 9 10 12 14 16 16 16 22 24 21 19 15 20 38 48 40 35 36 38 45 52 50 50 49 46 46 48 49 51 51 46 44 45 46 48 50 50 49 48 47 46 45 43 42 42 43 43 41 38 35 34 35 34 31 28 32 36 39 39 36 35 36 35
6 5 4 3 3 2 2 5 5 4 5 4 5 5 5 4 2 1 5 8 5 8 7 6 9 12 13 13 15 16 16 15 11 11 22 38 50 51 47 47 46 46 50 54 55 56 53 47 48 51 54 55 52 47 45 47 48 48 48 48 47 47 46 46 45 43 41 40 39 39 38 36 35 34 34 34 31 27 26 28 29 30 30 32 35 33
5 5 4 4 4 2 3 5 5 4 4 3 8 8 7 8 6 2 5 6 4 9 7 6 9 13 12 11 14 13 10 9 9 14 29 43 49 48 46 46 47 49 52 54 53 54 54 53 53 55 56 54 51 51 52 51 47 45 46 47 47 46 45 46 46 44 43 41 38 36 37 37 37 35 33 33 30 26 24 25 26 27 29 32 33 30
6 5 5 7 7 6 5 5 4 4 5 4 7 8 11 11 7 2 5 4 6 7 6 5 8 12 10 10 12 9 5 6 11 21 34 42 45 45 43 42 43 45 49 53 53 54 57 57 57 58 58 55 54 54 54 51 46 44 46 47 46 45 46 47 47 45 44 42 37 34 35 37 37 36 32 31 29 25 22 23 25 28 30 31 29 27
6 5 6 8 8 8 9 7 5 5 7 8 8 7 13 13 6 4 4 1 2 2 7 7 9 11 9 8 8 8 11 15 20 29 37 39 40 43 43 43 44 43 44 49 50 50 54 57 59 59 57 55 55 55 54 52 48 46 47 46 46 47 48 47 46 44 42 41 36 32 33 33 33 32 29 27 28 26 23 22 24 29 30 28 26 25
6 4 5 7 7 8 9 7 4 6 9 11 10 10 13 9 4 5 2 5 6 9 12 13 14 14 14 14 12 14 22 29 30 34 37 37 39 42 43 44 47 47 48 50 51 50 52 57 59 59 59 60 58 56 55 54 50 47 48 49 49 50 49 47 47 46 44 42 37 32 30 29 27 27 26 25 28 27 24 23 25 28 28 25 23 23
7 5 5 6 5 6 6 5 3 5 7 10 12 9 9 8 5 4 4 8 10 11 13 15 16 17 20 21 21 24 29 33 33 34 35 36 38 39 41 42 45 47 49 51 53 53 55 58 60 59 64 65 59 55 55 52 49 48 49 51 52 52 52 51 50 49 46 42 37 32 29 26 23 23 23 22 26 28 27 26 27 27 25 22 22 22
6 6 4 4 5 6 5 6 6 4 5 16 14 5 9 15 12 10 9 9 10 12 14 14 16 19 22 22 24 28 31 33 33 34 36 37 38 39 41 42 43 46 48 49 51 52 53 58 62 63 64 63 59 58 55 50 51 56 57 57 58 57 55 54 50 47 45 41 36 31 27 23 20 21 21 19 20 24 27 28 28 28 25 21 20 21
8 6 2 2 5 5 3 6 7 5 10 22 18 8 9 15 16 15 13 12 12 15 15 14 17 21 22 22 23 27 30 31 32 34 36 37 38 38 40 41 42 45 47 47 49 51 52 56 60 61 61 62 61 59 56 55 59 63 62 59 58 57 53 50 47 46 44 40 35 30 25 21 18 16 18 17 17 19 22 25 26 26 23 20 20 21
7 6 1 1 3 4 5 9 11 9 15 26 23 15 12 15 16 14 13 15 16 17 16 16 20 21 21 21 23 26 29 29 31 34 35 35 37 38 39 41 42 43 45 47 48 50 52 55 59 59 60 63 62 60 61 64 64 63 61 60 58 55 52 49 48 47 43 37 32 27 22 20 16 12 12 13 14 15 18 20 22 22 21 20 20 21
7 9 5 2 4 5 4 8 11 10 13 20 21 18 16 15 14 14 15 16 16 16 16 18 21 21 20 21 22 25 27 27 28 32 34 34 36 37 38 40 41 42 44 45 47 49 51 55 59 61 60 61 62 62 63 64 63 62 63 62 59 55 52 48 47 45 40 35 30 24 19 18 16 12 9 9 11 13 16 18 19 20 21 21 20 20
6 8 6 5 8 8 6 8 12 10 10 15 18 17 16 17 17 17 16 15 15 16 17 20 20 19 20 21 22 23 25 24 25 30 32 33 34 36 37 38 39 41 43 44 45 47 50 53 57 59 58 59 62 63 62 61 62 63 62 59 55 52 50 47 45 43 38 34 29 23 19 17 16 12 10 10 11 14 17 19 20 21 21 21 20 21
6 6 5 5 7 7 7 12 12 7 7 14 20 21 21 21 19 17 16 15 16 17 19 20 19 18 19 21 21 22 23 22 23 26 29 31 32 33 35 36 37 39 41 43 44 45 48 51 55 57 57 59 60 60 60 60 61 60 58 55 52 50 49 47 45 43 39 34 30 26 21 18 15 12 11 12 15 18 21 22 22 23 23 22 21 21
6 4 5 4 4 5 7 9 9 5 4 11 16 17 17 17 15 15 15 15 16 18 19 18 17 17 19 19 19 21 21 21 22 24 27 29 30 31 33 35 37 38 39 41 43 44 46 48 51 54 56 58 59 59 60 61 61 58 56 53 51 50 49 47 44 41 39 36 32 29 25 21 16 13 11 12 15 19 22 23 24 24 24 23 22 21
11 8 8 7 6 7 10 11 10 9 8 11 13 12 14 15 15 15 16 16 17 18 17 16 16 18 19 18 18 19 20 20 21 23 26 28 29 30 31 32 34 37 38 40 41 43 44 46 48 50 53 56 58 58 58 58 58 56 53 51 49 49 48 46 44 41 39 37 35 30 26 22 18 15 14 13 13 15 19 21 22 22 22 21 21 21
Wind_Direction
358 337 309 334 351 341 329 303 289 300 295 285 296 285 290 302 293 298 304 345 9 339 325 333 332 337 318 331 52 101 94 84 78 65 56 48 42 40 36 28 21 16 10 7 5 6 6 3 1 360 359 359 358 358 358 358 356 352 347 342 339 339 338 336 332 328 329 328 325 321 316 306 299 293 277 260 252 249 248 248 248 247 240 231 223 219
343 328 52 36 358 338 316 281 272 282 275 273 294 298 298 303 305 305 293 343 11 343 320 326 332 346 323 335 82 104 89 83 72 61 55 42 41 37 28 21 13 8 3 360 359 360 1 1 360 357 355 355 354 354 355 356 356 353 348 342 338 336 337 336 332 328 325 326 324 319 312 305 298 294 287 269 254 249 248 247 248 249 244 235 225 219
332 330 89 62 74 94 112 188 249 273 279 285 305 302 302 322 321 306 233 13 356 328 316 326 329 328 325 23 93 98 93 96 81 70 59 42 38 28 21 16 6 1 357 355 355 355 357 358 358 355 353 352 350 349 349 350 352 352 349 345 339 336 337 337 334 329 325 321 320 319 311 304 299 293 290 285 267 253 249 248 246 247 248 243 236 226
314 350 80 89 147 168 192 164 240 280 276 287 323 306 308 343 340 317 302 334 322 285 303 321 315 304 331 91 95 99 107 112 100 75 53 41 36 22 15 6 357 355 352 351 351 350 351 353 354 353 351 348 345 343 342 344 347 349 348 346 342 337 336 337 335 331 327 321 315 314 307 296 297 297 292 290 283 265 253 250 247 246 247 247 246 240
281 338 57 108 133 204 297 278 264 310 301 310 25 330 321 337 328 304 309 321 316 282 330 334 319 286 127 109 113 118 116 110 82 46 33 32 29 17 10 1 354 349 346 345 345 346 347 348 351 351 349 345 340 338 338 340 341 342 344 345 344 341 336 336 336 332 328 325 320 316 311 298 292 295 296 292 291 283 262 249 245 246 247 246 245 246
272 355 36 120 95 41 326 312 2 338 303 310 85 28 325 317 313 310 317 328 322 306 51 14 332 283 100 96 142 133 107 85 51 31 24 21 18 10 4 359 353 347 345 345 345 346 344 345 348 348 346 344 340 338 338 339 337 334 336 340 343 342 338 335 336 333 328 328 327 325 323 320 308 298 297 294 292 291 279 259 247 243 245 245 244 245
267 42 34 96 57 39 348 308 325 118 292 301 75 4 316 305 311 315 320 330 311 301 13 31 309 274 313 75 138 128 100 82 41 28 23 15 12 7 360 356 353 351 350 350 349 347 343 342 343 343 342 341 339 338 338 337 336 334 332 333 336 339 339 337 335 332 328 328 329 328 326 325 321 306 294 291 288 289 289 277 257 247 245 246 244 242
153 148 65 60 46 1 310 298 56 115 277 291 78 319 307 310 312 313 314 303 286 303 316 181 226 269 299 154 143 133 107 68 29 18 14 10 8 3 1 359 356 354 352 349 346 343 341 338 336 336 336 336 336 336 335 333 332 333 331 330 329 331 334 335 334 329 325 327 330 331 329 325 320 311 295 288 286 285 289 285 268 255 250 249 246 239
118 161 67 26 348 294 287 328 63 185 227 33 40 276 280 296 298 299 299 288 293 320 304 226 208 264 280 205 140 123 90 23 13 9 5 6 3 360 359 357 354 353 349 345 341 337 336 335 333 332 331 331 331 331 332 331 329 328 328 328 326 325 326 329 331 328 322 320 324 329 332 329 322 314 299 287 284 284 288 289 278 262 252 250 248 241
66 324 70 183 269 260 116 76 68 132 130 343 305 257 259 273 281 279 278 292 310 298 282 276 208 263 280 274 275 108 88 18 359 359 3 2 359 358 356 353 351 348 344 340 336 333 332 331 329 328 327 327 326 326 327 328 327 325 323 323 323 321 320 321 325 326 322 316 316 320 325 328 326 319 307 291 283 283 287 292 286 268 251 246 245 239
20 298 205 191 296 39 114 113 84 81 356 291 284 298 300 292 284 273 274 303 307 266 258 206 121 325 299 274 263 99 85 30 358 353 357 358 358 357 352 348 345 342 338 334 330 329 328 326 325 324 323 322 322 321 322 323 322 322 321 319 319 318 316 316 317 319 319 315 312 313 316 321 325 324 316 303 289 283 284 289 292 279 255 244 243 240
42 172 174 42 6 94 134 152 144 150 271 280 359 358 332 306 272 259 264 224 251 264 177 161 112 331 277 262 108 112 81 30 6 358 356 358 357 352 346 341 339 336 332 330 328 327 326 324 324 323 321 319 318 318 317 318 317 316 316 315 314 313 313 313 312 313 314 313 310 309 311 314 318 323 321 313 300 291 289 288 289 290 270 247 240 240
192 143 33 346 43 114 192 187 175 186 287 21 39 13 332 314 314 282 277 250 257 254 158 150 12 312 266 274 156 132 76 23 8 6 3 359 352 344 339 334 332 331 329 327 326 325 324 323 322 321 320 318 316 315 314 315 315 313 311 310 309 308 309 310 309 308 309 310 308 305 307 310 313 317 321 318 308 296 292 290 284 289 287 259 241 237
210 124 278 237 141 87 226 213 216 198 47 43 46 26 331 330 327 300 297 299 283 264 169 151 344 276 268 270 166 139 57 14 8 9 4 354 342 335 332 327 327 328 325 324 323 324 323 321 320 319 319 318 316 315 314 314 314 311 308 306 304 303 304 306 306 305 303 305 306 304 302 305 309 312 316 318 315 302 291 289 284 279 286 279 251 237
243 247 188 195 175 103 108 31 359 63 75 72 92 175 258 291 284 283 307 312 303 305 283 238 208 243 289 151 150 148 27 6 5 2 352 340 334 330 327 324 325 325 323 322 321 322 322 321 320 320 318 317 316 316 314 312 312 310 307 304 302 301 300 301 302 302 299 299 302 301 298 299 303 308 312 315 317 311 296 287 284 276 273 281 270 246
244 259 74 50 359 62 87 55 24 94 119 107 125 228 249 205 241 268 304 293 292 302 292 239 207 253 272 139 146 151 352 1 358 347 336 333 330 329 326 324 326 324 323 324 323 322 323 323 323 322 320 315 314 314 313 311 310 308 306 302 300 298 298 299 300 300 297 295 297 299 296 294 297 302 308 311 314 315 305 291 284 279 270 270 279 263
245 254 95 102 48 46 32 123 52 345 55 143 186 239 134 102 240 270 285 140 244 276 279 266 273 286 262 156 143 39 352 351 346 337 333 331 330 330 327 328 328 326 325 325 325 325 325 324 321 319 318 315 313 313 312 311 310 308 306 302 300 299 298 298 299 298 296 293 293 296 295 292 292 297 303 307 311 314 311 299 287 282 275 265 271 275
275 254 161 165 103 76 82 97 77 16 356 188 236 341 98 140 159 212 279 311 283 273 274 280 284 291 294 248 134 10 347 342 337 335 333 332 333 330 327 329 329 327 325 325 325 325 326 325 321 317 316 314 313 313 313 312 310 309 308 305 301 299 298 299 300 297 293 292 291 293 295 291 289 293 298 302 307 311 312 306 294 285 278 267 263 273
320 258 192 157 108 120 132 104 91 42 18 1 299 32 103 231 190 147 187 299 292 284 280 289 295 290 281 282 20 347 341 339 334 334 332 332 333 329 327 329 328 325 324 324 324 325 324 322 320 318 314 313 314 314 314 314 313 312 312 311 308 304 301 300 302 299 293 291 291 292 295 292 287 288 294 298 302 308 310 308 301 290 279 270 261 267
182 254 225 132 112 130 184 227 193 146 76 54 122 148 232 287 225 179 124 276 272 277 280 299 309 296 245 111 354 336 340 338 331 332 331 329 328 326 326 326 325 324 322 322 323 324 323 317 315 316 314 313 315 314 312 312 309 305 303 302 301 303 304 302 300 298 295 293 292 292 294 292 286 285 290 294 296 303 307 307 305 295 282 273 262 261
159 225 229 144 137 201 199 201 198 164 145 170 190 188 198 163 152 218 232 176 235 268 272 289 293 280 146 70 338 328 337 334 328 328 325 324 324 323 324 325 323 322 321 320 320 321 322 319 314 315 317 316 315 311 308 309 309 307 306 303 294 292 299 302 299 296 292 292 293 292 293 292 286 283 286 290 292 298 304 306 306 300 287 276 265 259
173 203 206 171 194 222 199 43 342 225 195 217 217 195 186 166 152 260 255 175 165 243 242 266 280 279 267 322 310 315 329 328 325 323 320 322 323 323 324 324 322 321 321 321 319 317 319 320 317 316 317 317 315 311 310 314 316 315 316 317 305 294 294 298 300 298 293 291 292 291 293 293 285 281 284 286 289 295 301 304 304 302 292 278 267 260
100 132 219 222 214 198 37 19 332 240 199 203 216 178 163 160 161 223 258 250 218 225 214 246 270 279 247 167 257 330 329 323 321 321 321 322 323 322 322 322 321 322 321 321 322 319 317 319 320 319 318 316 316 316 315 318 320 317 315 318 317 309 303 298 297 300 297 292 291 289 291 292 286 281 283 284 285 291 297 301 302 301 295 282 271 262
114 125 208 234 216 101 73 60 59 66 157 161 175 175 180 186 177 217 259 277 282 246 220 236 259 263 132 124 336 329 323 317 317 321 323 322 322 320 320 321 322 323 322 321 321 321 319 320 320 320 320 318 316 317 317 316 317 318 316 314 314 314 311 303 296 298 300 297 293 289 286 289 286 281 282 282 283 287 293 298 299 299 297 287 275 265
164 166 162 225 263 185 149 140 123 145 206 200 202 189 194 199 170 202 247 245 260 239 218 224 256 255 199 12 323 320 317 315 318 322 323 323 321 319 320 323 323 323 322 322 322 323 324 323 322 322 323 320 318 317 316 315 315 315 315 313 311 312 312 307 298 294 295 296 297 294 288 287 286 282 282 281 280 285 289 293 296 297 297 290 279 271
181 215 171 219 261 244 249 257 156 179 203 205 206 197 200 200 183 186 212 217 236 234 215 222 250 267 282 304 309 312 316 319 320 322 324 324 322 320 322 325 326 323 321 322 324 325 324 322 321 322 322 320 319 317 316 315 314 313 313 312 311 310 311 310 306 298 292 291 292 294 291 289 287 282 281 280 279 282 285 288 292 294 298 293 283 280
135 245 215 229 243 248 268 291 100 132 209 225 219 208 200 193 194 198 193 210 235 259 251 246 252 271 286 296 305 313 320 321 321 322 324 325 322 323 325 325 322 320 321 323 324 324 324 322 322 322 321 320 319 317 315 314 313 312 311 310 310 309 308 309 310 307 299 293 290 290 289 289 288 284 281 280 280 281 281 284 290 291 297 297 287 286
118 224 222 232 241 254 277 289 119 157 243 249 246 241 224 197 185 188 200 222 242 269 263 259 262 271 282 295 305 313 319 322 322 321 323 324 322 323 325 322 319 320 324 326 326 326 325 324 324 324 322 320 319 317 315 314 313 312 310 308 308 306 305 306 308 307 304 300 294 290 286 284 286 286 285 283 280 279 279 282 288 289 293 298 289 288
196 240 217 225 245 254 271 281 269 252 259 253 251 258 251 222 195 192 209 226 231 240 252 268 284 282 285 296 302 310 319 321 320 318 317 320 321 322 321 320 320 325 328 327 326 327 325 322 323 323 323 321 319 318 317 315 314 312 309 308 307 305 305 305 305 304 303 302 298 295 288 280 277 276 278 284 282 278 278 280 287 288 290 296 292 289
184 239 206 220 259 258 248 262 264 255 256 251 251 259 257 246 233 223 227 230 231 243 251 264 278 278 282 294 297 306 315 315 315 314 315 318 321 322 322 322 324 327 328 326 326 326 324 321 320 321 322 321 318 318 317 315 315 312 309 308 307 306 306 305 303 301 300 299 297 298 295 286 277 266 263 274 279 278 279 278 283 287 286 293 294 290
206 164 121 181 271 258 229 242 255 251 249 250 258 262 257 253 252 246 242 232 232 248 255 263 274 273 281 299 302 307 311 313 314 312 314 319 321 321 324 326 327 327 326 326 324 324 323 322 321 321 322 320 318 317 316 314 314 312 309 308 306 305 305 304 302 299 297 296 294 295 296 292 287 274 263 266 270 269 272 273 277 284 284 290 294 291
211 203 94 139 267 257 196 217 246 255 254 251 258 262 256 246 246 245 232 213 221 248 263 270 273 276 298 310 308 310 311 314 317 314 315 319 319 322 326 327 325 324 324 324 324 323 323 322 321 320 319 319 318 318 316 313 313 311 310 309 306 305 305 301 299 297 295 294 292 291 291 291 293 286 270 266 266 262 264 267 271 279 280 285 292 293
186 192 142 172 263 275 140 170 234 255 262 252 248 252 245 232 237 243 232 215 221 240 261 269 270 285 308 314 312 313 313 317 321 318 316 315 313 319 327 326 323 321 321 322 324 325 323 322 320 318 317 318 317 316 315 313 311 310 310 310 307 306 305 301 297 295 293 294 292 289 290 288 291 291 281 272 267 263 262 264 267 273 276 281 290 292
176 177 172 193 241 227 137 103 274 251 253 251 179 193 205 218 238 243 240 233 229 236 250 260 272 287 301 307 309 309 309 313 315 312 312 308 306 320 329 325 321 320 320 321 324 327 326 322 320 318 317 317 316 314 313 312 310 308 309 310 308 306 306 303 299 295 292 294 294 292 291 288 286 290 289 280 271 263 261 262 264 270 274 278 286 288
170 172 170 197 224 233 140 305 265 257 256 40 106 192 206 241 246 246 252 247 237 242 254 262 275 287 291 295 300 301 304 307 307 310 312 306 310 329 330 324 323 323 324 325 325 327 326 322 318 318 318 319 317 315 314 312 311 310 310 310 308 306 307 306 302 297 293 295 296 296 295 291 285 286 287 284 277 265 259 259 263 269 271 276 283 283
159 163 170 184 200 239 208 204 232 283 332 305 270 254 219 232 244 257 267 255 231 235 252 264 276 287 292 295 299 302 306 306 303 306 309 308 328 334 333 327 324 322 326 328 326 325 325 320 316 314 313 315 316 314 314 314 312 311 310 310 309 307 306 306 304 301 297 295 296 297 298 293 285 281 281 280 278 269 261 257 260 267 270 274 279 279
152 156 162 191 205 213 228 232 259 316 310 279 256 216 144 189 239 272 285 276 232 216 237 264 280 290 296 299 304 308 309 307 300 303 320 330 332 334 336 333 329 327 329 331 329 329 326 318 314 315 316 319 320 317 314 315 315 313 311 310 309 308 306 305 304 304 301 297 294 295 298 295 288 283 280 278 273 268 264 260 260 265 267 270 274 275
166 178 176 206 229 171 202 256 270 281 274 229 180 155 121 123 138 176 290 287 234 190 212 260 280 292 301 306 312 316 316 313 304 317 333 332 331 334 336 337 338 338 337 337 336 335 332 324 320 321 321 322 322 321 321 320 317 315 312 311 310 308 307 306 305 305 305 303 297 292 292 292 289 285 281 278 271 263 263 263 261 262 263 266 271 274
186 206 198 221 245 187 193 246 237 232 262 194 165 155 124 125 136 132 300 294 173 166 200 245 279 297 309 313 314 318 324 320 313 321 327 328 329 332 333 335 337 338 340 340 337 334 332 328 324 325 326 325 324 326 329 328 323 317 313 312 311 309 307 308 308 308 308 308 303 296 291 289 291 291 285 276 269 263 265 266 262 260 263 267 271 275
194 206 207 221 233 214 211 244 243 249 271 235 182 156 140 142 140 135 284 266 151 168 218 244 285 298 304 307 310 313 311 302 301 311 319 323 327 330 332 331 331 333 338 340 338 337 335 330 327 329 331 330 328 328 330 330 326 320 316 314 311 309 308 309 313 314 314 313 309 301 294 292 295 300 292 273 264 265 268 267 260 259 264 268 270 277
191 205 212 219 230 223 221 238 258 269 261 243 227 175 148 149 158 210 242 241 114 271 292 298 296 296 297 297 296 288 293 301 304 309 316 323 326 329 333 334 333 333 335 336 337 339 336 331 329 330 329 331 334 338 340 339 332 326 324 319 314 313 313 314 318 321 320 318 314 306 299 295 297 301 294 272 262 264 264 261 258 257 263 268 271 278
180 195 216 217 221 224 227 236 265 283 262 234 214 176 157 161 216 227 238 345 324 299 305 306 301 304 306 302 295 294 304 314 318 317 319 325 327 329 333 337 338 338 339 340 342 342 340 336 332 332 336 342 344 343 343 340 332 325 322 320 320 324 326 326 326 327 324 321 318 312 307 303 301 301 291 269 258 260 257 250 251 255 262 268 271 277
176 171 205 212 196 200 220 211 205 277 254 184 157 152 173 195 238 254 287 313 302 292 299 300 299 307 310 309 312 313 315 321 323 320 320 325 329 330 332 335 337 338 340 342 344 346 345 340 336 339 346 348 344 342 344 341 332 327 327 329 335 338 337 332 328 325 323 322 321 318 312 306 299 297 292 272 257 256 253 248 249 258 266 269 269 276
185 176 195 205 174 170 195 194 196 252 201 164 156 164 200 208 232 264 278 288 291 289 290 291 298 307 310 313 317 319 321 323 323 321 322 327 332 333 334 337 338 338 341 342 344 346 347 343 341 345 348 347 345 347 349 344 340 341 341 342 344 342 337 334 330 327 325 325 325 323 316 306 297 292 290 279 261 255 253 251 256 263 267 266 267 273
203 192 188 201 182 179 204 204 210 233 191 181 188 207 211 222 246 265 271 277 283 284 284 290 302 308 311 315 318 320 322 323 322 320 322 328 333 334 336 338 339 340 343 345 346 349 350 346 344 344 347 351 352 349 348 348 349 348 346 344 345 342 339 338 336 333 330 328 328 327 318 304 294 288 286 281 270 263 259 257 260 262 261 262 265 269
220 210 177 68 200 229 254 227 221 222 195 193 208 236 255 259 263 262 267 276 277 277 282 293 304 308 312 317 319 320 322 322 321 321 323 329 334 336 337 338 340 343 345 346 349 352 351 349 347 346 349 355 356 353 353 354 353 349 347 349 350 348 346 344 341 338 336 334 333 332 321 302 287 280 285 283 273 267 263 260 259 258 258 261 263 265
231 216 198 186 209 221 228 214 216 220 204 205 223 243 254 258 259 259 269 274 271 271 281 294 303 308 312 317 319 318 320 323 321 321 325 331 335 337 338 338 341 344 346 348 351 354 353 352 352 351 352 355 358 359 359 357 354 354 355 355 354 351 349 348 346 343 343 342 340 338 329 310 291 279 278 273 264 260 258 256 257 256 257 258 258 259
214 199 191 219 228 223 235 246 244 241 230 232 242 248 248 254 260 265 268 265 261 269 283 294 302 309 314 318 318 315 317 322 322 322 326 332 336 338 338 339 342 344 347 349 352 355 356 355 353 352 353 357 360 1 360 359 359 360 358 357 357 356 354 354 354 352 351 351 348 346 341 325 305 289 271 254 248 249 251 253 256 256 255 255 255 257
170 162 167 207 227 232 252 260 255 247 238 244 250 255 258 260 260 257 254 254 259 272 286 294 301 310 315 316 314 312 315 321 324 324 328 333 338 339 339 340 343 345 348 350 353 356 358 357 355 355 357 0 1 360 1 4 4 2 360 1 2 2 360 359 359 358 358 0 359 357 354 343 325 307 281 258 249 249 251 253 255 257 256 253 253 257
181 172 173 190 221 230 234 236 233 226 240 245 247 252 253 251 247 243 243 251 264 277 287 292 300 310 313 312 312 311 314 322 328 328 330 334 339 340 341 342 344 346 349 351 352 357 0 0 358 358 358 1 2 1 4 7 5 2 3 5 6 6 5 4 4 3 6 10 10 7 3 356 347 336 313 285 269 262 260 258 256 255 255 254 252 254
205 189 186 200 224 233 234 234 229 226 244 258 258 251 241 237 239 242 249 261 274 281 286 291 301 310 311 311 313 312 314 324 332 331 332 337 340 340 343 346 346 346 350 353 354 358 1 2 1 1 0 1 2 3 6 8 6 4 7 9 10 11 10 8 8 9 11 15 16 16 14 6 357 350 339 321 302 286 276 268 264 260 258 257 257 255